Location: Camera
(42.6528°N, 9.4494°E)
Time: 10:51:30
(UTC+00:00)

Daily predictions for brighter satellites

Satellite Brightness Start Highest point End
(mag) Time Altitude Azimuth Time Altitude Azimuth Time Altitude Azimuth
Nadezhda 4 Rocket 4.0 16:52:08 10° S 16:58:21 79° E 17:04:32 10° N
Cosmos 1680 Rocket 3.5 16:53:59 10° NNW 16:59:13 68° ENE 17:04:23 10° SSE
NOAA 12 4.4 16:55:51 10° S 17:01:03 73° WSW 17:06:19 10° NNW
Cosmos 1328 4.4 16:57:33 10° SSE 17:01:13 36° E 17:04:53 10° NNE
Meteor 2-10 Rocket 4.2 16:56:43 10° NNW 17:02:00 62° W 17:07:02 10° S
CZ-2D R/B 3.9 17:01:01 10° SE 17:04:27 32° ENE 17:07:53 10° N
CZ-4B R/B 1.8 17:02:40 10° NNE 17:05:45 37° E 17:08:44 10° SSE
MOS 1 Rocket 3.7 17:03:35 10° NNE 17:07:30 34° E 17:11:29 10° SSE
NOAA 11 4.4 17:02:54 10° SSE 17:08:24 83° WSW 17:13:56 10° NNW
Cosmos-2242 4.1 17:07:09 10° NNE 17:10:42 24° ENE 17:14:13 10° SE
NOSS 3-1 (C) 4.1 17:05:44 10° NW 17:13:20 77° NE 17:22:07 10° SE
Cosmos 1937 Rocket 3.6 17:09:32 10° S 17:14:46 64° ESE 17:20:03 10° NNE
COSMO-SKYMED 1 2.8 17:10:41 10° NNE 17:14:56 51° E 17:19:09 10° S
Cosmos 1758 Rocket 4.2 17:11:36 10° SSE 17:15:39 36° E 17:19:46 10° NNE
BREEZE-M DEB (TANK) 3.5 17:13:59 10° NW 17:15:43 19° N 17:17:14 12° NE
Aureole 3 3.1 17:15:25 10° NNW 17:18:25 64° W 17:21:22 10° S
OE (NEXTSAT) 4.3 17:15:19 10° WNW 17:18:46 89° NE 17:22:12 10° ESE
USA 290 3.1 17:19:53 10° N 17:22:39 27° ENE 17:25:25 10° SE
NOSS 2-1 (C) 4.2 17:20:04 10° WSW 17:23:12 37° NW 17:26:26 10° NNE
Cosmos 1833 Rocket 2.9 17:21:14 10° NNW 17:26:40 47° ENE 17:32:03 10° SE
H-2A R/B 2.6 17:22:20 10° SE 17:26:52 34° ENE 17:31:32 10° N
Cosmos 1939 Rocket 3.0 17:25:02 10° S 17:29:07 80° WSW 17:33:10 10° NNW
NOSS 2-1 (D) 4.4 17:26:08 10° WSW 17:29:10 32° NW 17:32:19 10° NNE
Helios 1A Rocket 4.0 17:26:08 10° ESE 17:29:31 25° ENE 17:32:54 10° NNE
H-2A R/B 3.4 17:27:56 10° N 17:32:01 40° WNW 17:36:00 10° SW
Cosmos 1602 Rocket 3.7 17:28:05 10° S 17:32:25 80° W 17:36:51 10° N
Cosmos 2344 4.4 17:23:57 10° NNW 17:33:18 65° NE 17:46:22 10° SE
Cosmos 2026 Rocket 3.9 17:27:28 10° S 17:33:33 70° E 17:39:45 10° NNE
Feng Yun 1-1 Rocket 4.2 17:28:53 10° SSE 17:34:21 84° ENE 17:39:59 10° NNW
USA 229 DEB 3.9 17:27:24 10° NNW 17:34:46 76° NE 17:42:30 10° SE
USA 229 3.9 17:27:31 10° NNW 17:34:53 76° NE 17:42:37 10° SE
CZ-3B R/B 2.5 17:32:45 10° NW 17:35:36 52° NE 17:44:15 10° ESE
SJ 16-02 3.8 17:32:37 10° WSW 17:36:00 21° WNW 17:39:23 10° N
YAOGAN 1 2.9 17:34:24 10° SE 17:38:26 41° ENE 17:42:31 10° N
Cosmos 1689 Rocket 2.5 17:41:34 24° NE 17:42:43 36° E 17:45:22 10° SSE
Cosmos 1553 Rocket 4.2 17:37:24 10° N 17:43:35 49° ENE 17:49:39 10° SSE
Aureole 3 Rocket 2.5 17:40:49 10° N 17:44:10 77° E 17:48:26 10° SSE
COSMOS 2406 3.2 17:40:18 10° NNW 17:46:06 76° ENE 17:51:50 10° SSE
Cosmos 2082 Rocket 2.7 17:41:08 10° N 17:46:27 38° ENE 17:51:40 10° SE
Cosmos 1825 Rocket 3.6 17:43:11 10° S 17:47:27 58° E 17:51:49 10° NNE
IRS-1C Rocket 4.0 17:42:38 10° SSE 17:47:52 82° ENE 17:53:09 10° NNW
X-37B 0.5 17:47:10 10° WNW 17:50:22 81° NNE 17:51:36 34° E
Meteor 1-27 4.3 17:44:57 10° N 17:50:23 49° ENE 17:55:45 10° SSE
NOSS 3-1 (A) 4.1 17:42:50 10° NW 17:50:30 81° NE 17:59:19 10° SE
ISS -1.8 17:50:40 10° NW 17:53:04 18° N 17:53:50 17° NNE
Cosmos 1812 Rocket 4.2 17:49:09 10° NNW 17:53:28 59° W 17:57:43 10° S
Okean O Rocket 4.0 17:50:14 10° SSW 17:53:59 27° W 17:57:44 10° NW
CZ-4 R/B 1.2 17:54:04 10° SSE 17:58:06 80° ENE 18:02:05 10° N
Iridium 4 Rocket 3.6 17:56:26 10° N 18:01:46 78° W 18:06:36 10° S
CSL-04 Rocket 3.9 17:57:14 10° SE 18:02:25 48° ENE 18:07:42 10° N
ERS-2 2.1 17:59:21 10° NNE 18:03:00 79° WNW 18:06:37 10° SSW
Okean-O 2.5 18:01:08 10° SSE 18:05:33 84° ENE 18:10:01 10° NNW
S3M 4.0 18:04:06 10° N 18:10:05 53° ENE 18:16:04 10° SSE
Cosmos 1346 Rocket 2.9 18:06:39 10° SSW 18:10:33 72° W 18:14:30 10° N
Cosmos 1655 Rocket 4.1 18:04:44 10° SSE 18:10:43 52° E 18:16:43 10° NNE
Cosmos 2278 Rocket 2.5 18:05:33 10° SSW 18:11:12 69° WNW 18:16:53 10° NNE
Cosmos 1953 Rocket 3.4 18:09:37 10° S 18:13:57 74° E 18:17:57 12° NNE
CZ-2C R/B 4.0 18:08:47 10° S 18:14:05 54° W 18:19:42 10° NNW
SWARM C 4.4 18:13:17 10° S 18:16:36 87° W 18:18:11 29° N
SWARM A 4.2 18:13:23 10° S 18:16:42 81° W 18:18:52 20° N
Cosmos 2292 Rocket 3.4 18:13:44 10° S 18:18:47 70° E 18:20:41 31° NNE
Cosmos 1892 3.8 18:15:21 10° S 18:17:22 28° SSE 18:17:22 28° SSE
SAR-Lupe-4 4.1 18:17:50 13° N 18:20:56 57° WNW 18:24:25 10° SSW
Cosmos 44 Rocket 3.2 18:16:38 10° SSW 18:21:30 74° ESE 18:23:19 39° NE
ARGOS 3.0 18:22:13 10° SSE 18:27:34 85° ENE 18:32:59 10° NNW
Meteor 2-2 Rocket 4.4 18:25:46 10° N 18:31:37 54° ENE 18:34:20 31° SE
Cosmos 1869 4.4 18:28:04 10° N 18:30:11 31° N 18:30:11 31° N
Cosmos 468 4.3 18:34:09 10° NNW 18:39:26 80° ENE 18:41:13 43° SSE
CZ-2C R/B 2.6 18:33:54 10° NNE 18:39:31 76° ESE 18:45:08 10° S
Milstar 3 4.4 18:36:07 10° SSW 18:42:21 20° S 18:44:24 18° SSE
Cosmos 494 Rocket 4.2 18:38:17 10° NNW 18:42:29 51° NNE 18:42:29 51° NNE
Cosmos 2150 Rocket 4.0 18:38:48 10° SSW 18:43:57 81° WNW 18:45:58 38° NNE
Cosmos 1048 Rocket 3.9 18:43:14 10° NNW 18:48:24 87° WSW 18:49:37 54° SSE
Cosmos 2297 3.6 18:46:07 10° SSW 18:51:23 66° SE 18:51:23 66° SE
SL-08 RB Rocket 4.0 18:59:18 63° WSW 18:59:23 63° W 19:03:51 10° NNW
H-2A R/B 3.9 19:01:56 10° SSW 19:06:18 29° W 19:10:48 10° NW
Cosmos 1125 Rocket 3.7 19:03:28 10° SSW 19:08:39 67° WNW 19:08:41 67° WNW
Cosmos 2266 Rocket 4.3 19:06:47 10° SSW 19:12:58 64° W 19:19:05 10° N
USA 267 4.4 19:19:53 28° S 19:19:53 28° S 19:23:07 10° SSW
Cosmos 1943 Rocket 4.0 19:21:36 10° SSW 19:23:18 21° SSW 19:23:18 21° SSW
Cosmos 2082 Rocket 3.7 19:25:23 10° NW 19:30:26 33° WSW 19:33:41 19° SSW
